This demonstration page uses our WeatherBlox Daily Observations layout. Learn more.

Left ArrowRight Arrow

41.12389, -100.76542

Hourly Observations for December 21, 2016

Temp ( °F °C ) Dew Point ( °F °C ) Humidity (%) Winds ( mph kmh ) Pressure ( in mb ) Visibility ( mi km ) Precip ( " mm )
12:53 am 00:53 Clear 34 1.1 23 -5 64 64 Calm 29.96 1015 10 16 0.00 0.00
1:53 am 01:53 Mostly Cloudy 34 1.1 24 -4.4 67 67 NW 7 11 29.95 1014 10 16 0.00 0.00
2:53 am 02:53 Cloudy 36 2.2 25 -3.9 64 64 NW 5 7 29.95 1014 10 16 0.00 0.00
3:53 am 03:53 Cloudy 37 2.8 27 -2.8 67 67 NNW 5 7 29.94 1014 10 16 0.00 0.03
4:53 am 04:53 Cloudy 38 3.3 27 -2.8 65 65 NW 6 9 29.96 1014 10 16 0.00 0.00
5:53 am 05:53 Clear 33 0.6 27 -2.8 78 78 WSW 5 7 29.98 1015 10 16 0.00 0.00
6:53 am 06:53 Clear 50 10 28 -2.2 43 43 NNW 23 37 30.00 1016 10 16 0.00 0.00
7:53 am 07:53 Clear 43 6.1 22 -5.6 43 43 NNW 21 33 30.09 1019 10 16 0.00 0.00
8:53 am 08:53 Sunny 42 5.6 20 -6.7 41 41 N 17 28 30.12 1020 10 16 0.00 0.00
9:53 am 09:53 Sunny 43 6.1 18 -7.8 37 37 N 26 43 30.15 1021 10 16 0.00 0.00
10:53 am 10:53 Sunny 46 7.8 15 -9.4 29 29 N 23 37 30.19 1022 10 16 0.00 0.00
11:53 am 11:53 Sunny 47 8.3 14 -10 26 26 NNW 21 33 30.21 1023 10 16 0.00 0.00
12:53 pm 12:53 Sunny 50 10 16 -8.9 26 26 NNW 21 33 30.22 1023 10 16 0.00 0.00
1:53 pm 13:53 Sunny 49 9.4 12 -11.1 22 22 NNW 23 37 30.22 1023 10 16 0.00 0.00
2:53 pm 14:53 Sunny 48 8.9 11 -11.7 22 22 NNW 24 39 30.26 1025 10 16 0.00 0.00
3:53 pm 15:53 Sunny 46 7.8 12 -11.1 25 25 N 20 31 30.29 1026 10 16 0.00 0.00
4:53 pm 16:53 Sunny 41 5 13 -10.6 32 32 NNW 12 19 30.33 1027 10 16 0.00 0.00
5:53 pm 17:53 Clear 34 1.1 14 -10 44 44 N 5 7 30.37 1028 10 16 0.00 0.00
6:53 pm 18:53 Clear 30 -1.1 14 -10 51 51 N 8 13 30.36 1028 10 16 0.00 0.00
7:53 pm 19:53 Clear 22 -5.6 13 -10.6 68 68 NW 3 6 30.42 1030 10 16 0.00 0.00
8:53 pm 20:53 Clear 19 -7.2 12 -11.1 74 74 NNW 5 7 30.44 1031 10 16 0.00 0.00
9:53 pm 21:53 Clear 18 -7.8 12 -11.1 77 77 WNW 7 11 30.46 1032 10 16 0.00 0.00
10:53 pm 22:53 Clear 16 -8.9 10 -12.2 77 77 NW 5 7 30.46 1032 10 16 0.00 0.00
11:53 pm 23:53 Clear 14 -10 9 -12.8 80 80 WNW 7 11 30.46 1032 10 16 0.00 0.00

Powered by AerisWeather